Tracking 18624 objects as of 28-April-2017
HD Live streaming from Space Station
objects crossing your sky now

AZUR (GRS A)

Track AZUR (GRS A) now!
10-day predictions
AZUR (GRS A) is classified as:


NORAD ID: 4221
Int'l Code: 1969-097A
Perigee: 363.7 km
Apogee: 1,286.0 km
Inclination: 102.7 °
Period: 101.2 minutes
Semi major axis: 7195 km
RCS: 0.3339 m2 (medium)
Launch date: November 8, 1969
Source: Germany (GER)
Launch site: AIR FORCE WESTERN TEST RANGE (AFWTR)
Your satellite tracking list
Your tracking list is empty





NASA's NSSDC Master Catalog

Two Line Element Set (TLE):
1  4221U 69097A   17116.85679694 +.00003746 +00000-0 +18208-3 0  9992
2  4221 102.6995 318.8734 0640904 256.6745 096.2226 14.22260664241888
Source of the keplerian elements: AFSPC